TimeMST,TemperatureF,Dew PointF,Humidity,Sea Level PressureIn,VisibilityMPH,Wind Direction,Wind SpeedMPH,Gust SpeedMPH,PrecipitationIn,Events,Conditions,WindDirDegrees,DateUTC
12:51 AM,33.1,28.9,85,30.21,10.0,Calm,Calm,-,N/A,,Partly Cloudy,0,2013-11-10 07:51:00
1:51 AM,32.0,28.0,85,30.20,10.0,Calm,Calm,-,N/A,,Scattered Clouds,0,2013-11-10 08:51:00
2:51 AM,30.9,27.0,85,30.20,10.0,Calm,Calm,-,N/A,,Partly Cloudy,0,2013-11-10 09:51:00
3:51 AM,30.9,27.0,85,30.21,10.0,Calm,Calm,-,N/A,,Clear,0,2013-11-10 10:51:00
4:51 AM,28.9,27.0,92,30.22,10.0,Calm,Calm,-,N/A,,Clear,0,2013-11-10 11:51:00
5:51 AM,28.9,27.0,92,30.24,10.0,East,3.5,-,N/A,,Clear,90,2013-11-10 12:51:00
6:51 AM,28.0,26.1,92,30.25,10.0,Calm,Calm,-,N/A,,Clear,0,2013-11-10 13:51:00
7:51 AM,28.9,26.1,89,30.27,10.0,Calm,Calm,-,N/A,,Partly Cloudy,0,2013-11-10 14:51:00
8:51 AM,28.9,27.0,92,30.27,10.0,Calm,Calm,-,N/A,,Clear,0,2013-11-10 15:51:00
9:51 AM,33.1,30.0,89,30.26,10.0,Calm,Calm,-,N/A,,Clear,0,2013-11-10 16:51:00
10:51 AM,37.9,30.9,76,30.26,10.0,Calm,Calm,-,N/A,,Clear,0,2013-11-10 17:51:00
11:51 AM,42.1,33.1,70,30.24,10.0,Calm,Calm,-,N/A,,Clear,0,2013-11-10 18:51:00
12:51 PM,46.9,32.0,56,30.20,10.0,Calm,Calm,-,N/A,,Clear,0,2013-11-10 19:51:00
1:51 PM,50.0,30.9,48,30.19,10.0,Calm,Calm,-,N/A,,Clear,0,2013-11-10 20:51:00
2:51 PM,51.1,30.9,46,30.19,10.0,Calm,Calm,-,N/A,,Clear,0,2013-11-10 21:51:00
3:51 PM,51.1,30.9,46,30.18,10.0,North,3.5,-,N/A,,Clear,350,2013-11-10 22:51:00
4:51 PM,48.9,33.1,54,30.19,10.0,Calm,Calm,-,N/A,,Clear,0,2013-11-10 23:51:00
5:51 PM,43.0,34.0,71,30.21,10.0,ENE,3.5,-,N/A,,Partly Cloudy,70,2013-11-11 00:51:00
6:51 PM,42.1,34.0,73,30.23,10.0,Calm,Calm,-,N/A,,Clear,0,2013-11-11 01:51:00
7:51 PM,39.0,33.1,79,30.23,10.0,NNE,3.5,-,N/A,,Partly Cloudy,20,2013-11-11 02:51:00
8:51 PM,37.0,32.0,82,30.25,10.0,ENE,3.5,-,N/A,,Partly Cloudy,60,2013-11-11 03:51:00
9:51 PM,33.1,30.0,89,30.26,10.0,Calm,Calm,-,N/A,,Clear,0,2013-11-11 04:51:00
10:51 PM,32.0,28.9,88,30.26,10.0,ENE,4.6,-,N/A,,Clear,60,2013-11-11 05:51:00
11:51 PM,30.0,27.0,88,30.26,10.0,Calm,Calm,-,N/A,,Clear,0,2013-11-11 06:51:00